Regional Weather Roundup
Issued by NWS Kansas City/Pleasant Hill, MO

Home | Current Version | Previous Version | Graphics & Text | Print | Product List | Glossary Off
Versions: 1 2 3 4 5 6 7 8 9 10 11 12 13 14 15 16 17 18 19 20 21 22 23 24 25 26 27

000
ASUS43 KEAX 220610
RWREAX

WEATHER ROUNDUP FOR EASTERN KANSAS AND NORTHWEST MISSOURI
NATIONAL WEATHER SERVICE KANSAS CITY/PLEASANT HILL MO
100 AM CDT THU JUN 22 2017

KSZ040-057-103>105-MOZ028-029-037-043-220700-
...KANSAS CITY METROPOLITAN AREA...

CITY           SKY/WX    TMP DP  RH WIND       PRES   REMARKS
K.C. INTL      CLEAR     77  62  59 S16       29.84R
6HR MIN TEMP:  76; 6HR MAX TEMP:  87;

K.C. DOWNTOWN  CLEAR     79  62  56 S9        29.84R
6HR MIN TEMP:  79; 6HR MAX TEMP:  89;

LEES SUMMIT    CLEAR     76  62  62 S13       29.86R
6HR MIN TEMP:  76; 6HR MAX TEMP:  88;

OLATHE - IXD   CLEAR     73  64  73 S8        29.86R
6HR MIN TEMP:  73; 6HR MAX TEMP:  86;

OLATHE - OJC   CLEAR     73  65  75 S9        29.85S
6HR MIN TEMP:  73; 6HR MAX TEMP:  84;

LAWRENCE       CLOUDY    75  67  76 SE8       29.83F

$$

MOZ001>008-011>017-020>025-030>033-038>040-044>046-053-054-220700-
...NORTHERN AND CENTRAL MISSOURI...

CITY           SKY/WX    TMP DP  RH WIND       PRES   REMARKS
ST. JOSEPH     CLOUDY    78  66  66 S10       29.81R
6HR MIN TEMP:  78; 6HR MAX TEMP:  89;

MOSBY          CLEAR     77  59  53 S6        29.85S
WHITEMAN AFB   CLEAR     72  70  93 S8        29.87R
6HR MIN TEMP:  71; 6HR MAX TEMP:  86;

CLINTON        PTCLDY    72  64  78 S6        29.89S
SEDALIA        CLEAR     73  68  84 S8        29.90R
6HR MIN TEMP:  72; 6HR MAX TEMP:  88;

WARSAW         NOT AVBL
CHILLICOTHE      N/A     78  64  61 S8        29.87R
6HR MIN TEMP:  78; 6HR MAX TEMP:  88;

KIRKSVILLE     CLEAR     75  66  73 S8        29.89R
6HR MIN TEMP:  71; 6HR MAX TEMP:  88;


$$

MOZ041-047>049-056>058-063>065-088>090-097-220700-
...EASTERN AND SOUTHERN MISSOURI...

CITY           SKY/WX    TMP DP  RH WIND       PRES   REMARKS
ST. LOUIS INTL MOCLDY    81  68  64 S9        29.92F
6HR MIN TEMP:  81; 6HR MAX TEMP:  91;

SPIRIT OF STL  MOCLDY    73  70  90 S3        29.90F
COLUMBIA       PTCLDY    73  66  78 S6        29.90R
JEFFERSON CITY PTCLDY    75  67  76 SE6       29.89S
ROLLA          PTCLDY    71  68  90 SE6       29.92S
OSAGE BEACH    PTCLDY    71  67  87 SE3       29.91S
SPRINGFIELD    PTCLDY    71  66  84 SE5       29.90S
BRANSON        PTCLDY    72  68  88 SE8       29.91S
JOPLIN         CLEAR     73  66  78 CALM      29.89S
WEST PLAINS    CLEAR     72  67  84 CALM      29.94S

$$

IAZ060-094-KSZ022-034>040-054-083-096-NEZ052-066-093-220700-
...KANSAS...SOUTHEAST NEBRASKA AND IOWA...

CITY           SKY/WX    TMP DP  RH WIND       PRES   REMARKS
TOPEKA         CLOUDY    76  66  71 S6        29.82S
6HR MIN TEMP:  76; 6HR MAX TEMP:  89;

MANHATTAN      CLOUDY    80  59  48 S14G23    29.78F
EMPORIA        CLEAR     71  63  75 S10       29.84R
CHANUTE        PTCLDY    70  63  78 S6        29.86S
WICHITA        CLOUDY    75  61  61 S16       29.82S
OMAHA          PTCLDY    83  63  50 S16       29.72S
LINCOLN        MOCLDY    82  61  48 S21G29    29.71F
FALLS CITY     CLOUDY    79  61  53 S13G22    29.78S
LAMONI         CLEAR     74  65  73 S8        29.83R
DES MOINES     CLOUDY    78  65  63 S14       29.77S

$$





USA.gov is the U.S. government's official web portal to all federal, state and local government web resources and services.